Find Starlink 30940

NORAD ID: 58409 Int'l Des: 2023-180 Owner: SPXS Country: US Constellation: starlink operational
LEOCIRCULAR

当前视图

正在加载3D地球...

About Starlink 30940

Starlink 30940 (NORAD 58409) is a starlink constellation satellite (v2 mini) launched Nov 22, 2023 by SPXS of US. It operates in LEO, CIRCULAR orbit with a mass of 730.00 kg.

即将过境

Passes for default location (London). Set your location on the main map for personalized predictions.

高度历史

Loading altitude history...

两行轨道根数

1 58409U 23180H 26235.17717784 .00002523 00000-0 10123-3 0 9992
2 58409 43.0009 47.2358 0000894 281.2462 78.8289 15.27564907154793
Epoch: Aug 23, 2026 • Age: 25 hours

当前状态

高度 482.1 km
远地点 / 近地点 N/A
速度 7.63 km/s
星下点 13.31°N, 1.71°E
发射日期 Nov 22, 2023
运行时间 2.7 years
类型 internet

技术详情

分类 Payload
质量 730.00 kg
干质量 700.00 kg
总质量 730.00 kg
长度 0.30 m
直径 4.10 m
跨度 29.00 m
形状 Box + pan
制造商 SPXS
平台类型 Starlink V2M
阶段状态 In Orbit
所有者/国家 SPXS/US

Most Searched